Location: Gaggenau
(48.8000°N, 8.3333°E)
Time: 07:16:44
(UTC+00:00)

Daily predictions for brighter satellites

Satellite Brightness Start Highest point End
(mag) Time Altitude Azimuth Time Altitude Azimuth Time Altitude Azimuth
NOSS 3-2 (C) 4.2 20:05:11 10° WSW 20:10:53 61° NW 20:17:33 10° NE
ATLAS CENTAUR R/B 1.8 20:09:03 10° NW 20:13:20 63° NE 20:17:52 10° SE
Cosmos 2173 Rocket 4.2 20:09:37 10° N 20:16:01 69° ENE 20:22:21 10° SSE
Cosmos 405 4.2 20:13:32 10° N 20:16:31 26° ENE 20:19:28 10° SE
SL-8 R/B 4.2 20:12:47 10° W 20:17:23 46° SSW 20:21:57 10° SE
Cosmos 2016 Rocket 4.4 20:13:58 10° N 20:19:54 49° ENE 20:25:49 10° SSE
Cosmos 1452 Rocket 3.9 20:14:40 10° SSW 20:19:56 73° WNW 20:25:15 10° NNE
SL-4 R/B 3.8 20:19:30 10° SSE 20:20:59 12° SE 20:22:25 10° ESE
Cosmos 2219 Rocket 3.0 20:18:28 10° SSE 20:23:26 32° ESE 20:28:26 10° NE
Cosmos 2333 Rocket 2.8 20:19:26 10° S 20:24:42 38° ESE 20:29:58 10° NE
FALCON 9 DEB 3.7 20:23:37 10° SSW 20:26:22 28° SE 20:29:08 10° E
ERS-1 Rocket 3.4 20:24:29 10° SE 20:29:20 50° ENE 20:34:13 10° N
Cosmos 1025 Rocket 3.2 20:25:19 10° S 20:29:35 54° E 20:33:51 10° NNE
Geosat 4.4 20:24:57 10° SE 20:29:52 57° NE 20:34:49 10° NNW
Lacrosse 5 rocket 0.9 20:26:25 10° SW 20:30:04 67° SE 20:33:39 10° ENE
Cosmos 1844 3.8 20:24:33 10° NNW 20:30:09 81° WSW 20:35:45 10° SSE
Cosmos 1536 Rocket 4.5 20:28:37 10° SSE 20:32:37 33° E 20:36:36 10° NNE
Spot 2 Rocket 3.5 20:29:03 10° SSE 20:34:06 77° ENE 20:39:11 10° NNW
Cosmos 1725 Rocket 4.3 20:28:16 10° N 20:34:21 55° ENE 20:40:24 10° SSE
Cosmos 1727 Rocket 4.4 20:29:14 10° SSW 20:35:31 68° WNW 20:41:47 10° N
Cosmos 1331 Rocket 4.0 20:31:46 10° SSW 20:37:00 77° ESE 20:42:19 10° NNE
DNEPR-1 R/B 3.5 20:35:14 10° NW 20:39:29 86° NE 20:43:36 12° SE
FALCON 9 DEB 3.0 20:38:55 10° SW 20:41:55 49° SSE 20:44:56 10° ENE
KORONAS-FOTON 4.3 20:40:04 10° SSW 20:43:49 60° WNW 20:47:34 10° N
CENTAUR R/B 4.1 20:37:54 10° WSW 20:43:52 42° NNW 20:50:58 10° NE
CARTOSAT-1 3.6 20:40:28 10° SSE 20:44:47 89° ENE 20:49:08 10° NNW
Cosmos 2237 Rocket 3.9 20:41:59 10° SE 20:44:57 15° E 20:48:00 10° ENE
Terra 2.3 20:41:19 11° SE 20:45:40 48° ENE 20:50:16 10° N
SL-14 R/B 3.6 20:41:54 10° S 20:45:48 51° E 20:49:42 10° NNE
SPOT 1/Viking Rocket 4.0 20:41:44 10° S 20:46:49 61° WSW 20:51:55 10° NNW
Cosmos 2360 Rocket 2.5 20:41:57 10° SSW 20:47:36 75° WNW 20:53:16 10° NNE
CZ-2C R/B 4.0 20:42:52 10° NNE 20:47:39 77° WNW 20:52:25 10° SSW
Cosmos 1674 3.4 20:44:14 10° SSW 20:47:52 53° WNW 20:51:31 10° N
FALCON 9 DEB 3.1 20:46:53 10° SW 20:49:53 45° SSE 20:52:53 10° ENE
Cosmos 1953 3.3 20:47:15 10° NNW 20:51:09 45° W 20:55:01 10° SSW
Cosmos 2322 Rocket 3.5 20:46:26 10° SW 20:51:54 45° NW 20:57:24 10° NNE
SL-16 R/B 3.9 20:46:49 10° WSW 20:52:04 37° NW 20:57:21 10° NNE
FALCON 9 DEB 2.9 20:49:24 10° SW 20:52:27 56° SSE 20:55:31 10° ENE
Cosmos 1455 4.4 20:50:24 10° NNE 20:52:28 14° ENE 20:54:30 10° E
SPOT 5 3.0 20:48:16 11° SSE 20:53:09 77° ENE 20:57:59 10° NNW
Cosmos 1975 Rocket 4.1 20:50:56 10° SSW 20:55:08 46° WNW 20:59:25 10° N
Cosmos 1802 Rocket 4.1 20:48:52 10° N 20:55:10 81° W 21:01:32 10° S
Meteor 1-24 Rocket 4.2 20:51:24 11° SSE 20:56:09 41° E 21:01:18 10° NNE
Cosmos 1459 Rocket 4.3 20:50:36 10° NNW 20:56:36 65° W 21:02:34 10° S
H-2A R/B 4.4 20:53:25 10° NNE 20:57:04 30° E 20:59:53 15° SSE
Cosmos 1302 Rocket 4.1 20:53:11 10° S 20:58:21 61° ESE 21:03:32 10° NNE
Cosmos 1300 2.7 20:59:28 10° N 21:03:17 76° E 21:06:19 15° SSE
Resurs 01 Rocket 3.8 21:02:49 10° SW 21:06:09 21° W 21:09:30 10° NW
USA 267 4.2 21:05:13 10° E 21:11:26 48° NNE 21:17:39 10° WNW
Cosmos 1340 2.7 21:07:58 10° SSW 21:11:43 78° W 21:15:31 10° N
Cosmos 2322 3.7 21:09:34 10° SSW 21:15:13 89° SE 21:20:56 10° NNE
Cosmos 2278 Rocket 2.6 21:10:45 10° NNW 21:16:21 56° ENE 21:20:55 15° SE
COSMOS 2428 2.7 21:11:16 10° SSW 21:16:56 66° ESE 21:22:39 10° NNE
Cosmos 1844 Rocket 4.1 21:12:07 10° NW 21:17:03 31° WSW 21:21:59 10° SSW
Cosmos 389 Rocket 2.9 21:19:01 10° N 21:22:21 47° ENE 21:24:17 22° SE
NOSS 0 Rocket 4.4 21:18:00 13° S 21:23:03 41° ESE 21:28:50 10° NE
Cosmos 1726 Rocket 4.4 21:19:52 10° N 21:24:04 39° ENE 21:26:53 18° SE
Cosmos 1867 3.6 21:19:18 10° NW 21:24:49 84° SW 21:28:54 18° SSE
Cosmos 968 Rocket 3.6 21:24:37 10° NNW 21:29:44 73° WSW 21:33:29 18° SSE
Cosmos 1626 4.1 21:31:37 10° SW 21:34:49 28° WNW 21:38:03 10° NNW
Cosmos 1486 Rocket 4.0 21:30:00 10° NNW 21:35:15 85° WSW 21:38:52 20° SSE
SJ 16-02 3.7 21:34:02 10° NNE 21:36:32 15° NE 21:39:00 10° E
Cosmos 2123 Rocket 4.5 21:31:15 10° SSW 21:37:29 63° WNW 21:43:48 10° N
FALCON 9 DEB 4.4 21:34:30 10° W 21:37:48 44° N 21:41:06 10° ENE
Meteor 2-10 Rocket 3.4 21:34:02 10° NNW 21:39:09 89° E 21:42:36 20° S
Cosmos 1606 Rocket 3.7 21:35:19 10° N 21:39:48 69° ENE 21:42:32 23° SSE
Cosmos 2233 Rocket 4.1 21:34:30 10° NNW 21:40:40 78° W 21:45:35 17° S
Uosat 12 SS-18 rocket 4.2 21:37:10 10° SW 21:41:35 85° SE 21:46:45 10° NE
Cosmos 1943 Rocket 4.0 21:37:16 10° N 21:41:40 23° NE 21:46:02 10° E
Cosmos 1992 Rocket 4.0 21:37:59 15° S 21:42:12 62° ESE 21:47:23 10° NNE
ARIANE 5 R/B 4.3 21:38:54 10° SSW 21:42:43 27° W 21:46:35 10° NW
Cosmos 1892 Rocket 4.2 21:43:59 23° SSE 21:46:16 41° E 21:50:29 10° NNE
Cosmos 1346 Rocket 2.7 21:47:04 21° S 21:49:43 85° E 21:53:47 10° NNE
Cosmos 1447 Rocket 4.5 21:44:53 16° S 21:50:02 83° E 21:56:14 10° N
Cosmos 1354 Rocket 4.2 21:46:11 10° NNW 21:51:32 70° ENE 21:55:00 22° SE
ATLAS CENTAUR R/B 3.4 21:48:37 10° WNW 21:51:54 21° WSW 21:54:30 13° SSW
Cosmos 1980 3.9 21:51:14 18° S 21:55:17 54° ESE 22:00:50 10° NE
Cosmos 1441 Rocket 4.5 21:54:42 22° ESE 21:55:55 26° E 21:59:08 10° NE
BREEZE-M DEB (TANK) 3.6 21:46:00 10° SW 21:56:20 43° SSE 21:59:45 10° E
ATLAS 3B R/B 3.1 21:51:10 10° SW 21:57:41 64° NW 22:04:29 10° NE
SL-4 R/B 2.0 21:55:58 10° SW 21:59:57 49° SSE 22:03:39 10° ENE
ALOS 2 3.9 21:57:54 17° ESE 22:00:31 31° ENE 22:04:23 10° N
FALCON 9 DEB 3.4 21:58:49 10° W 22:01:56 60° NNW 22:05:03 10° ENE
Cosmos 2219 Rocket 3.2 22:01:43 10° SW 22:07:13 48° NW 22:12:44 10° NNE
Cosmos 1607 4.0 22:02:21 10° NW 22:08:47 77° SW 22:12:53 23° SSE
Cosmos 2333 Rocket 3.4 22:03:31 10° WSW 22:08:57 42° NW 22:14:23 10° NNE
Lacrosse 5 rocket 3.1 22:06:08 10° W 22:09:23 30° NNW 22:12:37 10° NE
Cosmos 1703 4.0 22:08:43 28° SE 22:10:07 38° E 22:13:49 10° NNE
Cosmos 2228 3.7 22:07:13 10° NNW 22:11:28 47° W 22:14:06 21° SSW
Iridium 2 3.6 22:12:19 30° S 22:14:05 86° W 22:17:51 10° N
FALCON 9 DEB 4.1 22:14:34 10° W 22:17:33 44° NNW 22:20:34 10° ENE
Meteor 2-1 Rocket 4.2 22:13:27 10° N 22:19:00 77° ENE 22:22:14 26° SSE
USA 215 3.4 22:13:02 10° ENE 22:19:21 50° SE 22:25:28 11° SSW
Terra 3.6 22:20:12 11° SW 22:23:40 23° W 22:27:29 10° NW
COBE Rocket 4.0 22:22:10 27° SSE 22:24:55 68° ENE 22:29:48 10° N
FALCON 9 DEB 4.0 22:22:34 10° W 22:25:35 46° NNW 22:28:37 10° ENE
SL-16 R/B 3.1 22:23:55 24° SE 22:26:11 33° ESE 22:31:13 10° NE
Cosmos 2237 Rocket 2.1 22:23:45 17° SSW 22:28:09 87° ESE 22:33:48 10° NNE
FALCON 9 DEB 4.2 22:25:11 10° W 22:28:10 42° N 22:31:10 10° ENE
Cosmos 1455 2.6 22:24:40 10° NNW 22:28:26 55° W 22:29:59 31° SSW
Cosmos 1464 Rocket 4.0 22:24:05 10° N 22:30:29 86° W 22:34:26 25° S
Cosmos 1184 Rocket 2.7 22:29:49 41° SSW 22:30:49 80° W 22:34:05 10° N
Cosmos 1328 4.4 22:31:00 32° SE 22:32:10 42° E 22:35:53 10° NNE
Cosmos 2369 Rocket 3.7 22:30:53 10° NNW 22:35:56 31° NE 22:40:56 10° ESE
Cosmos 192 4.3 22:33:47 24° SSW 22:36:49 89° ESE 22:41:46 10° NNE
GEOS 3 Rocket 3.7 22:38:08 26° SSE 22:41:13 73° SW 22:46:35 10° NW
ATLAS CENTAUR R/B 3.4 22:40:45 22° SSW 22:44:19 62° SE 22:56:58 10° NE
USA 32 4.3 22:45:30 10° N 22:50:42 59° E 22:53:23 28° SSE
Aureole 3 4.4 22:47:30 10° N 22:51:10 39° ENE 22:53:19 24° SE
Cosmos 1816 Rocket 4.5 22:47:50 27° S 22:51:18 72° E 22:57:25 10° NNE
USA 267 3.3 22:47:33 10° ESE 22:54:06 84° NNE 23:00:41 10° NW
Okean 1-7 Rocket 3.7 22:54:15 29° SSW 22:56:26 68° W 23:00:53 10° N
Cosmos 1812 Rocket 3.8 22:53:12 10° N 22:57:32 62° ENE 22:59:21 33° SSE
BREEZE-M DEB (TANK) 3.0 22:56:35 10° W 23:00:04 82° N 23:10:33 10° E
Cosmos 2278 Rocket 3.5 22:55:23 10° NW 23:00:05 28° WSW 23:02:45 19° SW
Cosmos 2058 Rocket 4.1 22:58:22 10° NNW 23:02:26 36° W 23:04:24 24° SW
Cosmos 2297 3.7 22:57:20 10° NNW 23:03:00 89° NE 23:06:11 27° SSE
Cosmos 2034 Rocket 4.1 23:00:27 10° NNW 23:06:35 66° W 23:10:01 27° SSW
Thor Agena Rocket 4.1 23:02:27 10° NNE 23:07:30 46° E 23:09:46 29° SSE
NOSS 2-3 (C) 4.2 23:07:21 33° SE 23:08:11 36° ESE 23:12:31 10° NE
SAR-Lupe-2 3.7 23:05:09 10° NNE 23:08:44 60° ESE 23:09:33 45° SSE
FALCON 9 DEB 4.3 23:11:47 10° WNW 23:15:06 44° N 23:18:23 10° E
SJ 16-02 1.2 23:11:21 10° NNW 23:15:45 85° WSW 23:17:27 37° SSE
Cosmos 1174 4.4 23:14:18 27° SSW 23:17:22 73° SE 23:22:00 10° NE
Meteor 1-11 4.2 23:19:57 30° S 23:22:49 82° E 23:28:26 10° NNE
Meteor 1-27 4.3 23:18:35 10° N 23:24:10 72° ENE 23:27:14 28° SSE
GP-B 3.1 23:19:47 10° N 23:24:16 82° E 23:26:01 37° S
Meteor 1-4 Rocket 3.3 23:22:44 10° NNW 23:25:57 35° W 23:26:36 32° WSW
Cosmos 1943 Rocket 2.1 23:20:31 10° NNW 23:26:02 78° WSW 23:28:53 30° SSE
Nimbus 7 Rocket 4.4 23:20:10 10° NNE 23:26:16 89° ESE 23:29:47 27° SSW
Cosmos 1825 Rocket 4.1 23:25:14 31° SSE 23:26:54 48° E 23:31:12 10° NNE
Cosmos 1892 3.4 23:30:16 34° SE 23:31:24 44° E 23:35:07 10° NNE
MTI 4.0 23:28:54 10° N 23:31:55 56° WNW 23:32:27 47° WSW
Cosmos 1437 Rocket 4.5 23:31:43 10° N 23:35:01 26° ENE 23:37:15 16° ESE
Cosmos 1869 3.6 23:32:26 10° N 23:36:31 62° ENE 23:38:08 34° SE
ALOS 2 3.7 23:35:17 25° SW 23:36:49 32° W 23:40:46 10° NNW
CZ-2D R/B 4.3 23:34:41 10° ENE 23:36:59 13° E 23:39:16 10° ESE
Tsikada Rocket 4.2 23:34:13 25° SSW 23:37:54 66° WNW 23:44:04 10° N
Cosmos 1943 4.2 23:36:45 23° SE 23:39:06 32° ESE 23:44:02 10° NE
SL-4 R/B 2.2 23:35:35 10° W 23:39:30 63° NNW 23:43:08 10° ENE
Cosmos 990 Rocket 4.1 23:34:33 10° NNW 23:39:46 73° ENE 23:42:50 25° SSE
Lacrosse 4 Rocket 3.9 23:37:05 10° N 23:40:12 20° NE 23:43:16 10° E
EO 1 Del DPAF 4.0 23:38:07 10° NNE 23:41:39 39° E 23:42:38 32° SE
USA 229 DEB 3.7 23:38:46 28° SSW 23:42:13 59° ESE 23:48:55 10° NE
USA 229 3.7 23:38:53 28° S 23:42:19 59° ESE 23:49:01 10° NE
NOSS 8 (F) 4.1 23:43:55 58° SSE 23:44:08 60° SE 23:47:04 10° NE
Cosmos 1603 4.5 23:46:12 26° SSE 23:48:43 39° ESE 23:53:56 10° NE
Lacrosse 5 rocket 3.7 23:46:24 10° NW 23:49:17 22° N 23:52:10 10° ENE
NOSS 3-1 (C) 3.3 23:46:44 23° SW 23:50:19 88° NW 23:56:46 10° NE
Cosmos 1953 Rocket 3.9 23:50:42 33° SSE 23:52:26 57° E 23:56:46 10° NNE
SL-16 R/B 4.1 23:47:56 10° ESE 23:53:15 31° ENE 23:58:35 10° N
FALCON 9 DEB 4.4 23:50:38 10° WNW 23:53:33 38° N 23:56:29 10° ENE
Cosmos 1408 2.7 23:53:09 43° SSE 23:54:11 66° E 23:57:52 10° NNE
Cosmos 1825 3.0 23:54:28 29° SE 23:55:41 39° E 23:59:14 10° NNE
